Flag for India Weather past 2 weeks in Navi Mumbai, Maharashtra, India

Now
77 °F

Heavy rain. More clouds than sun.


Feels Like: 78 °F
Forecast: 79 / 83 °F
Wind: 12 mph from West

Location: Bombay / Santacruz

Current Time: Jul 29, 2014 at 5:55:58 PM

Latest Report: Jul 29, 2014 at 3:40 PM


Visibility: 1 mi

Pressure: 29.62 "Hg

Humidity: 100%

Dew point: 77 °F

Location of Navi MumbaiLocation

Historic Weather in Navi Mumbai — Graph

°F

Navi Mumbai temperature yesterday

Maximum temperature yesterday: 82 °F (at 10:40 AM)
Minimum temperature yesterday: 79 °F (at 12:40 AM)
Average temperature yesterday: 81 °F

Past Weeks' High & Low Weather Summary

 TemperatureHumidityPressure
High88 °F (Jul 21, 11:40 AM)100% (Jul 15, 7:40 AM)29.80 "Hg (Jul 15, 7:40 AM)
Low77 °F (Jul 15, 3:40 AM)70% (Jul 26, 2:40 PM)29.50 "Hg (Jul 15, 5:40 PM)
Average83 °F88%29.64 "Hg
* Reported Jul 14 3:40 PM — Jul 29 3:40 PM, Navi Mumbai, Weather by CustomWeather, © 2014

Note: Actual official high and low records may vary slightly from our data, if they occured in-between our weather recording intervals... More about our weather records

Advertising

Navi Mumbai weather history for previous 24 hours

 ConditionsComfort  
Time TempWeatherWind HumidityBarometerVisibility
3:40 PM
Jul 29
77 °FHeavy rain. More clouds than sun.12 mph100%29.62 "Hg1 mi
1:40 PM84 °FMore clouds than sun.9 mph89%29.65 "Hg2 mi
12:40 PM84 °FMore clouds than sun.13 mph89%29.65 "Hg2 mi
11:40 AM82 °FMore clouds than sun.8 mph94%29.68 "Hg2 mi
9:40 AM82 °FLight rain. More clouds than sun.9 mph94%29.68 "Hg1 mi
7:40 AM81 °FLight rain. More clouds than sun.12 mph94%29.65 "Hg1 mi
6:40 AM81 °FRain. Mostly cloudy.13 mph100%29.62 "Hg1 mi
5:40 AM81 °FRain. Mostly cloudy.12 mph94%29.59 "Hg1 mi
4:40 AM81 °FRain. Mostly cloudy.9 mph94%29.59 "Hg1 mi
3:40 AM81 °FRain. Mostly cloudy.8 mph94%29.59 "Hg1 mi
2:40 AM81 °FRain. Mostly cloudy.8 mph94%29.59 "Hg1 mi
1:40 AM81 °FRain. Mostly cloudy.15 mph94%29.62 "Hg1 mi
11:40 PM
Jul 28
81 °FRain. Mostly cloudy.17 mph94%29.65 "Hg1 mi
10:40 PM81 °FRain. Mostly cloudy.14 mph100%29.68 "Hg1 mi
9:40 PM81 °FRain. Mostly cloudy.8 mph94%29.65 "Hg1 mi
7:40 PM81 °FLight rain. More clouds than sun.10 mph94%29.65 "Hg2 mi
5:40 PM81 °FMore clouds than sun.14 mph94%29.62 "Hg2 mi
Weather by CustomWeather, © 2014

See weather overviewHow to use our weather pages